When you browse on this site, cookies collect data to enhance your experience and personalize the content and advertising you see.
Visit our Privacy Policy to learn more. By continuing to use the site, you agree to this use of cookies and data.
  • En España
  • Lista de países
  • Para 7 días
  • Temperatura del agua
  • El tiempo en el mapa
  • Informadores
  • user-avatar
    Iniciar sesión

    Tiempo cada hora Djelfa

    Hoy, 30 Mayo, Sábado

    Tiempo Temperatura Precipitaciones Viento Presión Humedad
    00:00 +19°C° 0 mm 4 mps 663 mmHg 64%
    01:00 +19°C° 0 mm 4 mps 663 mmHg 64%
    02:00 +19°C° 0 mm 4 mps 662 mmHg 64%
    03:00 +19°C° 0 mm 4 mps 662 mmHg 64%
    04:00 +19°C° 0 mm 5 mps 662 mmHg 67%
    05:00 +19°C° 0 mm 5 mps 662 mmHg 70%
    06:00 +19°C° 0 mm 6 mps 663 mmHg 74%
    07:00 +20°C° 0 mm 6 mps 663 mmHg 68%
    08:00 +21°C° 0 mm 5 mps 663 mmHg 63%
    09:00 +22°C° 0 mm 5 mps 664 mmHg 57%
    10:00 +23°C° 0 mm 5 mps 664 mmHg 52%
    11:00 +25°C° 0 mm 5 mps 664 mmHg 46%
    12:00 +25°C° 0 mm 4 mps 664 mmHg 41%
    13:00 +26°C° 0 mm 4 mps 664 mmHg 37%
    14:00 +26°C° 0 mm 4 mps 664 mmHg 32%
    15:00 +27°C° 0 mm 4 mps 663 mmHg 28%
    16:00 +26°C° 0 mm 5 mps 663 mmHg 27%
    17:00 +26°C° 0 mm 5 mps 663 mmHg 25%
    18:00 +26°C° 0 mm 5 mps 663 mmHg 23%
    19:00 +25°C° 0 mm 4 mps 663 mmHg 27%
    20:00 +23°C° 0 mm 4 mps 663 mmHg 31%
    21:00 +22°C° 0 mm 3 mps 664 mmHg 34%
    22:00 +21°C° 0 mm 2 mps 664 mmHg 38%
    23:00 +20°C° 0 mm 2 mps 664 mmHg 41%

    Mañana, 31 Mayo, Domingo

    Tiempo Temperatura Precipitaciones Viento Presión Humedad
    00:00 +20°C° 0 mm 2 mps 663 mmHg 45%
    01:00 +19°C° 0 mm 2 mps 663 mmHg 44%
    02:00 +19°C° 0 mm 2 mps 663 mmHg 44%
    03:00 +19°C° 0 mm 3 mps 663 mmHg 44%
    04:00 +19°C° 0 mm 3 mps 663 mmHg 43%
    05:00 +19°C° 0 mm 4 mps 663 mmHg 42%
    06:00 +20°C° 0 mm 4 mps 663 mmHg 41%
    07:00 +21°C° 0 mm 5 mps 663 mmHg 41%
    08:00 +22°C° 0 mm 6 mps 664 mmHg 42%
    09:00 +23°C° 0 mm 7 mps 665 mmHg 42%
    10:00 +24°C° 0 mm 7 mps 665 mmHg 40%
    11:00 +26°C° 0 mm 7 mps 665 mmHg 39%
    12:00 +27°C° 0 mm 7 mps 664 mmHg 37%
    13:00 +28°C° 0 mm 6 mps 664 mmHg 32%
    14:00 +30°C° 0 mm 5 mps 664 mmHg 28%
    15:00 +32°C° 0 mm 5 mps 664 mmHg 23%
    16:00 +32°C° 0 mm 4 mps 664 mmHg 23%
    17:00 +30°C° 0 mm 4 mps 664 mmHg 23%
    18:00 +30°C° 0 mm 4 mps 663 mmHg 22%
    19:00 +29°C° 0 mm 5 mps 664 mmHg 29%
    20:00 +27°C° 0 mm 7 mps 664 mmHg 36%
    21:00 +24°C° 0 mm 9 mps 664 mmHg 43%
    22:00 +23°C° 0 mm 9 mps 664 mmHg 46%
    23:00 +22°C° 0 mm 8 mps 664 mmHg 49%

    Pasado mañana, 1 Junio, Lunes

    Tiempo Temperatura Precipitaciones Viento Presión Humedad
    00:00 +22°C° 0 mm 8 mps 663 mmHg 53%
    01:00 +21°C° 0 mm 8 mps 663 mmHg 54%
    02:00 +21°C° 0 mm 7 mps 663 mmHg 55%
    03:00 +20°C° 0 mm 6 mps 663 mmHg 57%
    04:00 +20°C° 0 mm 5 mps 663 mmHg 57%
    05:00 +20°C° 0 mm 5 mps 663 mmHg 58%
    06:00 +20°C° 0 mm 4 mps 664 mmHg 58%
    07:00 +22°C° 0 mm 3 mps 664 mmHg 52%
    08:00 +24°C° 0 mm 2 mps 665 mmHg 47%
    09:00 +25°C° 0 mm 1 mps 665 mmHg 41%
    10:00 +27°C° 0 mm 2 mps 666 mmHg 38%
    11:00 +28°C° 0 mm 3 mps 666 mmHg 34%
    12:00 +30°C° 0 mm 3 mps 666 mmHg 30%
    13:00 +30°C° 0 mm 4 mps 666 mmHg 28%
    14:00 +32°C° 0 mm 5 mps 666 mmHg 26%
    15:00 +32°C° 0 mm 6 mps 666 mmHg 24%
    16:00 +30°C° 0 mm 5 mps 666 mmHg 27%
    17:00 +29°C° 0 mm 4 mps 665 mmHg 29%
    18:00 +28°C° 0 mm 4 mps 665 mmHg 32%
    19:00 +27°C° 0 mm 3 mps 665 mmHg 35%
    20:00 +26°C° 0 mm 3 mps 666 mmHg 39%
    21:00 +26°C° 0 mm 2 mps 666 mmHg 42%
    22:00 +25°C° 0 mm 2 mps 666 mmHg 43%
    23:00 +24°C° 0 mm 2 mps 665 mmHg 44%

    2 Junio, Martes

    Tiempo Temperatura Precipitaciones Viento Presión Humedad
    00:00 +23°C° 0 mm 2 mps 665 mmHg 45%
    01:00 +23°C° 0 mm 2 mps 665 mmHg 46%
    02:00 +23°C° 0 mm 1 mps 665 mmHg 48%
    03:00 +22°C° 0 mm 1 mps 665 mmHg 49%
    04:00 +23°C° 0 mm 1 mps 665 mmHg 47%
    05:00 +23°C° 0 mm 1 mps 665 mmHg 45%
    06:00 +24°C° 0 mm 1 mps 666 mmHg 44%
    07:00 +25°C° 0 mm 2 mps 666 mmHg 39%
    08:00 +27°C° 0 mm 3 mps 667 mmHg 35%
    09:00 +28°C° 0 mm 4 mps 667 mmHg 30%
    10:00 +29°C° 0 mm 4 mps 667 mmHg 28%
    11:00 +30°C° 0 mm 5 mps 667 mmHg 26%
    12:00 +32°C° 0 mm 5 mps 667 mmHg 24%
    13:00 +33°C° 0 mm 5 mps 666 mmHg 23%
    14:00 +33°C° 0 mm 5 mps 666 mmHg 22%
    15:00 +34°C° 0 mm 5 mps 665 mmHg 20%
    16:00 +33°C° 0 mm 4 mps 665 mmHg 21%
    17:00 +33°C° 0 mm 4 mps 664 mmHg 22%
    18:00 +31°C° 0 mm 3 mps 664 mmHg 23%
    19:00 +30°C° 0 mm 6 mps 664 mmHg 28%
    20:00 +28°C° 0 mm 8 mps 664 mmHg 33%
    21:00 +27°C° 0 mm 11 mps 664 mmHg 38%
    22:00 +26°C° 0 mm 11 mps 664 mmHg 39%
    23:00 +24°C° 0 mm 12 mps 664 mmHg 40%

    3 Junio, Miércoles

    Tiempo Temperatura Precipitaciones Viento Presión Humedad
    00:00 +24°C° 0 mm 12 mps 663 mmHg 41%
    01:00 +23°C° 0 mm 10 mps 663 mmHg 43%
    02:00 +23°C° 0 mm 8 mps 663 mmHg 44%
    03:00 +22°C° 0 mm 5 mps 662 mmHg 45%
    04:00 +22°C° 0 mm 4 mps 662 mmHg 46%
    05:00 +22°C° 0 mm 3 mps 663 mmHg 47%
    06:00 +23°C° 0 mm 2 mps 663 mmHg 48%
    07:00 +25°C° 0 mm 3 mps 663 mmHg 43%
    08:00 +27°C° 0 mm 4 mps 664 mmHg 37%
    09:00 +29°C° 0 mm 5 mps 664 mmHg 31%
    10:00 +30°C° 0 mm 6 mps 664 mmHg 27%
    11:00 +33°C° 0 mm 7 mps 664 mmHg 24%
    12:00 +34°C° 0 mm 7 mps 664 mmHg 20%
    13:00 +34°C° 0 mm 8 mps 663 mmHg 20%
    14:00 +35°C° 0 mm 8 mps 663 mmHg 20%
    15:00 +35°C° 0 mm 9 mps 662 mmHg 19%
    16:00 +34°C° 0 mm 8 mps 662 mmHg 20%
    17:00 +34°C° 0 mm 7 mps 662 mmHg 21%
    18:00 +33°C° 0 mm 6 mps 662 mmHg 22%
    19:00 +30°C° 0 mm 6 mps 662 mmHg 30%
    20:00 +27°C° 0 mm 5 mps 662 mmHg 39%
    21:00 +23°C° 0 mm 5 mps 662 mmHg 48%
    22:00 +23°C° 0 mm 4 mps 662 mmHg 49%
    23:00 +23°C° 0 mm 4 mps 662 mmHg 50%

    4 Junio, Jueves

    Tiempo Temperatura Precipitaciones Viento Presión Humedad
    00:00 +22°C° 0 mm 3 mps 661 mmHg 52%
    01:00 +23°C° 0 mm 2 mps 661 mmHg 53%
    02:00 +21°C° 0 mm 2 mps 661 mmHg 54%
    03:00 +22°C° 0 mm 1 mps 661 mmHg 54%
    04:00 +22°C° 0 mm 1 mps 661 mmHg 53%
    05:00 +22°C° 0 mm 1 mps 661 mmHg 52%
    06:00 +23°C° 0 mm 1 mps 661 mmHg 51%
    07:00 +24°C° 0 mm 2 mps 661 mmHg 45%
    08:00 +26°C° 0 mm 3 mps 662 mmHg 39%
    09:00 +28°C° 0 mm 4 mps 662 mmHg 34%
    10:00 +30°C° 0 mm 5 mps 662 mmHg 29%
    11:00 +32°C° 0 mm 6 mps 662 mmHg 23%
    12:00 +34°C° 0 mm 7 mps 663 mmHg 18%
    13:00 +35°C° 0 mm 8 mps 662 mmHg 16%
    14:00 +37°C° 0 mm 9 mps 662 mmHg 15%
    15:00 +38°C° 0 mm 9 mps 662 mmHg 13%
    16:00 +37°C° 0 mm 9 mps 661 mmHg 14%
    17:00 +35°C° 0 mm 8 mps 661 mmHg 16%
    18:00 +34°C° 0 mm 8 mps 661 mmHg 17%
    19:00 +33°C° 0 mm 6 mps 661 mmHg 21%
    20:00 +30°C° 0 mm 4 mps 661 mmHg 25%
    21:00 +29°C° 0 mm 2 mps 662 mmHg 29%
    22:00 +28°C° 0 mm 3 mps 661 mmHg 25%
    23:00 +28°C° 0 mm 4 mps 661 mmHg 22%
    Mostrar más